EA3E-2 Weather Reports


Display with metric or nautical units.
time (UTC)temp
F
wind
direction
speed
MPH
gust
MPH
rain 1hr
in
rain 24hr
in
rain mn
in
humidity
%
barometer
mb
20260507173402 63 122 4.0 9.0 0.00 0.00 0.00 72 1012.0
20260507172502 63 120 4.0 9.0 0.00 0.00 0.00 70 1011.9
20260507171603 64 132 4.0 8.0 0.00 0.00 0.00 69 1011.9
20260507170702 64 139 4.0 8.0 0.00 0.00 0.00 68 1011.8
20260507165802 64 126 4.0 8.0 0.00 0.01 0.00 67 1012.0
20260507164002 65 133 5.0 10.0 0.00 0.02 0.00 66 1012.0
20260507163102 65 133 4.0 10.0 0.00 0.02 0.00 66 1012.0
20260507162202 65 134 5.0 10.0 0.00 0.02 0.00 65 1012.0
20260507161302 65 131 5.0 11.0 0.00 0.02 0.00 65 1011.9
20260507160402 65 118 5.0 9.0 0.00 0.02 0.00 65 1011.9
20260507155502 65 124 5.0 10.0 0.00 0.02 0.00 65 1011.9
20260507154602 65 131 6.0 10.0 0.00 0.02 0.00 66 1011.8
20260507153702 65 120 7.0 11.0 0.00 0.02 0.00 66 1012.0
20260507152802 65 112 7.0 11.0 0.00 0.02 0.00 66 1011.9
20260507151902 64 117 6.0 11.0 0.00 0.09 0.00 67 1011.9
20260507151003 65 118 8.0 13.0 0.00 0.57 0.00 66 1012.0
20260507145202 65 125 8.0 15.0 0.00 0.70 0.00 67 1012.0
20260507144302 65 130 8.0 14.0 0.00 0.70 0.00 68 1012.1
20260507143402 65 128 9.0 15.0 0.00 0.70 0.00 68 1012.1
20260507141603 65 127 8.0 15.0 0.00 0.70 0.00 69 1012.3
20260507140702 65 124 8.0 15.0 0.00 0.70 0.00 70 1012.1
20260507135802 65 132 9.0 18.0 0.00 0.70 0.00 67 1012.4
20260507134002 65 129 11.0 18.0 0.00 0.70 0.00 69 1012.6
20260507133102 65 127 10.0 19.0 0.00 0.70 0.00 70 1012.6
20260507132202 65 133 10.0 17.0 0.00 0.70 0.00 69 1012.7
20260507131302 66 127 10.0 18.0 0.00 0.70 0.00 70 1012.6
20260507130402 66 130 10.0 18.0 0.00 0.70 0.00 68 1012.6
20260507125502 66 133 9.0 17.0 0.00 0.70 0.00 67 1012.7
20260507123702 66 123 9.0 17.0 0.00 0.70 0.00 69 1012.7
20260507121903 65 133 7.0 13.0 0.00 0.70 0.00 71 1012.7
20260507121002 65 131 7.0 14.0 0.00 0.70 0.00 71 1012.6
20260507115202 65 127 7.0 16.0 0.00 0.70 0.00 73 1012.7
20260507113402 66 127 6.0 13.0 0.00 0.70 0.00 72 1012.9
20260507112502 66 126 5.0 12.0 0.00 0.82 0.00 73 1012.9
20260507111602 65 127 6.0 12.0 0.00 0.83 0.00 74 1012.9
20260507110702 65 133 5.0 12.0 0.00 0.83 0.00 72 1013.0
20260507104902 65 141 3.0 8.0 0.00 0.83 0.00 72 1012.9
20260507104003 65 144 3.0 10.0 0.00 0.83 0.00 73 1013.1
20260507103102 65 148 2.0 12.0 0.00 0.83 0.00 73 1013.3
20260507102202 65 128 3.0 5.0 0.00 0.83 0.00 74 1013.3
20260507101302 65 130 2.0 9.0 0.00 0.83 0.00 73 1013.4
20260507100402 65 128 0.0 8.0 0.00 0.83 0.00 75 1013.4
20260507095502 64 0 0.0 0.0 0.00 0.83 0.00 76 1013.4
20260507093702 63 99 1.0 3.0 0.00 0.83 0.00 76 1013.4
20260507092802 63 102 1.0 4.0 0.00 0.83 0.00 75 1013.4
20260507091902 64 145 1.0 6.0 0.00 0.83 0.00 75 1013.3
20260507091002 63 152 0.0 5.0 0.00 0.83 0.00 76 1013.4
20260507085202 62 151 0.0 4.0 0.00 0.83 0.00 77 1013.4
20260507084302 62 120 0.0 1.0 0.00 0.83 0.00 78 1013.5
20260507082502 62 120 0.0 2.0 0.00 0.83 0.00 76 1013.7
20260507081602 61 0 0.0 0.0 0.00 0.83 0.00 77 1013.8
20260507075802 60 192 0.0 3.0 0.00 0.83 0.00 80 1013.9
20260507074902 60 235 0.0 2.0 0.00 0.83 0.00 79 1013.8
20260507073102 60 0 0.0 0.0 0.00 0.83 0.00 80 1013.7
20260507072202 59 0 0.0 0.0 0.00 0.83 0.00 82 1013.6
20260507071302 57 0 0.0 0.0 0.00 0.83 0.00 84 1013.6
20260507065502 56 0 0.0 0.0 0.00 0.83 0.00 89 1013.6
20260507064602 55 0 0.0 0.0 0.00 0.83 0.00 90 1013.6
20260507063702 54 0 0.0 0.0 0.00 0.83 0.00 90 1013.5
20260507062802 54 230 0.0 1.0 0.00 0.83 0.00 91 1013.6
20260507061902 53 230 2.0 3.0 0.00 0.83 0.00 91 1013.3
20260507061002 52 230 2.0 3.0 0.00 0.83 0.00 91 1013.3
20260507054302 51 239 3.0 4.0 0.00 0.83 0.00 92 1013.2
20260507053402 50 244 1.0 4.0 0.00 0.83 0.00 91 1013.3
20260507052502 50 247 1.0 4.0 0.00 0.83 0.00 92 1013.1
20260507051602 50 248 2.0 3.0 0.00 0.83 0.00 92 1013.1
20260507050702 50 246 2.0 3.0 0.00 0.83 0.00 91 1013.1
20260507044902 50 232 2.0 5.0 0.00 0.83 0.00 91 1013.1
20260507043102 51 219 1.0 3.0 0.00 0.83 0.00 91 1013.0
20260507042202 51 243 2.0 3.0 0.00 0.83 0.00 91 1013.1
20260507041302 51 244 1.0 4.0 0.00 0.83 0.00 91 1013.0
20260507040402 51 0 0.0 0.0 0.00 0.83 0.00 91 1013.0
20260507035502 52 0 0.0 0.0 0.00 0.83 0.00 91 1013.0
20260507034602 52 0 0.0 0.0 0.00 0.83 0.00 91 1012.9
20260507033702 52 0 0.0 0.0 0.00 0.83 0.00 91 1013.0
20260507032802 52 0 0.0 0.0 0.00 0.83 0.00 91 1013.0
20260507031902 53 0 0.0 0.0 0.00 0.83 0.00 91 1012.9
20260507031002 53 0 0.0 0.0 0.00 0.83 0.00 90 1012.8
20260507023402 54 0 0.0 0.0 0.00 0.83 0.00 90 1013.0
20260507022503 54 0 0.0 0.0 0.00 0.83 0.00 90 1013.0
20260507021602 54 0 0.0 0.0 0.00 0.83 0.00 90 1013.1
20260507015802 55 0 0.0 0.0 0.00 0.83 0.00 90 1013.0
20260507014902 55 0 0.0 0.0 0.00 0.83 0.00 90 1012.9
20260507014002 55 0 0.0 0.0 0.00 0.83 0.00 89 1013.1
20260507013102 55 0 0.0 0.0 0.00 0.83 0.00 89 1013.2
20260507012202 55 0 0.0 0.0 0.00 0.83 0.00 89 1013.3
20260507011302 55 0 0.0 0.0 0.00 0.83 0.00 88 1013.3
20260507010402 55 0 0.0 0.0 0.00 0.83 0.00 88 1013.4
20260507005502 55 244 2.0 3.0 0.00 0.83 0.00 88 1013.5
20260507004602 55 244 2.0 4.0 0.00 0.83 0.00 88 1013.4
20260507003702 55 240 2.0 6.0 0.00 0.83 0.00 88 1013.7
20260507002802 55 238 0.0 6.0 0.00 0.83 0.00 89 1013.6
20260507001902 55 0 0.0 0.0 0.00 0.83 0.00 91 1013.7
20260507001002 55 0 0.0 0.0 0.00 0.83 0.00 91 1013.7
20260506235202 55 0 0.0 0.0 0.00 0.83 0.00 91 1013.8
20260506234302 54 0 0.0 0.0 0.00 0.83 0.00 91 1013.8
20260506233402 55 0 0.0 0.0 0.00 0.83 0.00 91 1013.8
20260506232502 54 0 0.0 0.0 0.00 0.83 0.00 91 1013.8
20260506231602 54 264 1.0 2.0 0.00 0.83 0.00 91 1013.9
20260506230702 54 254 2.0 4.0 0.00 0.83 0.00 91 1013.8
20260506225802 54 225 1.0 3.0 0.00 0.83 0.00 91 1013.9
20260506224002 55 0 0.0 0.0 0.00 0.83 0.00 91 1013.9
20260506223101 55 0 0.0 0.0 0.00 0.83 0.00 91 1014.0
20260506222202 55 0 0.0 0.0 0.00 0.83 0.00 91 1013.9
20260506221302 55 0 0.0 0.0 0.00 0.83 0.00 91 1013.9
20260506215502 55 268 2.0 4.0 0.00 0.83 0.83 91 1013.9
20260506214602 55 270 2.0 4.0 0.00 0.83 0.83 91 1013.9
20260506213702 55 274 0.0 4.0 0.00 0.83 0.83 91 1013.9
20260506212801 55 0 1.0 0.0 0.00 0.83 0.83 92 1013.8
20260506211902 55 277 1.0 3.0 0.00 0.83 0.83 92 1013.9
20260506211001 56 0 0.0 0.0 0.00 0.83 0.83 91 1013.8
20260506203402 56 0 0.0 0.0 0.00 0.83 0.83 91 1013.8
20260506202502 56 0 0.0 0.0 0.00 0.83 0.83 91 1013.8
20260506201601 56 0 0.0 0.0 0.00 0.83 0.83 91 1013.7
20260506200702 56 0 0.0 0.0 0.00 0.83 0.83 91 1013.6
20260506195801 56 280 1.0 2.0 0.00 0.83 0.83 91 1013.5
20260506194901 56 280 0.0 4.0 0.00 0.83 0.83 91 1013.3
20260506194002 56 279 1.0 3.0 0.00 0.83 0.83 91 1013.1
20260506193101 56 280 2.0 3.0 0.00 0.83 0.83 91 1013.1
20260506192202 56 280 2.0 4.0 0.00 0.83 0.83 91 1012.9
20260506191301 56 283 2.0 3.0 0.00 0.83 0.83 91 1012.9
20260506190401 56 288 3.0 6.0 0.00 0.83 0.83 91 1012.8
20260506185502 56 291 3.0 6.0 0.00 0.83 0.83 91 1012.8
20260506184602 56 283 3.0 8.0 0.00 0.83 0.83 91 1012.7
20260506183701 56 280 3.0 6.0 0.00 0.83 0.83 91 1012.6
20260506182802 56 301 4.0 8.0 0.00 0.83 0.83 91 1012.6
20260506181902 56 341 3.0 6.0 0.00 0.83 0.83 91 1012.4
20260506175201 57 0 0.0 0.0 0.01 0.83 0.83 90 1011.9